Preview of NWS' New Version of Forecast
This preview is not operational and should not be used for support decisions.

Regional Weather Roundup (RWR)

Issued by National Weather Service (NWS)

                            
000
ASUS44 KBMX 200910
RWRAL 
             
ALABAMA REGIONAL WEATHER ROUNDUP
NATIONAL WEATHER SERVICE BIRMINGHAM AL
300 AM CST WED FEB 20 2019

NOTE: "FAIR" INDICATES FEW OR NO CLOUDS BELOW 12,000 FEET
WITH NO SIGNIFICANT WEATHER AND/OR OBSTRUCTIONS TO VISIBILITY.

THE REMARK "TC" DENOTES TEMPERATURE IN DEGREES CELSIUS.

ALZ001>011-014-016>018-020-201000-
NORTH ALABAMA
  
CITY           SKY/WX    TMP DP  RH WIND       PRES   REMARKS
MUSCLE SHOALS  CLOUDY    49  47  93 SE21G36   29.90F                  
HUNTSVILLE     CLOUDY    47  45  93 SE20      29.98S                  
DECATUR        CLOUDY    46  44  93 SE22G29   29.98F                  
HALEYVILLE     LGT RAIN  46  46 100 SE18G25   29.94F FOG              
GADSDEN        CLOUDY    45  45 100 E9        30.13F                  
$$
 
ALZ012-013-022-023-030>036-040>044-201000-
WEST CENTRAL ALABAMA
  
CITY           SKY/WX    TMP DP  RH WIND       PRES   REMARKS
TUSCALOOSA     LGT RAIN  52  48  86 SE10G22   29.99F                  
DEMOPOLIS      CLOUDY    55  51  86 SE9       29.99F                  
$$
 
ALZ015-024>026-033>036-041>044-201000-
CENTRAL ALABAMA
  
CITY           SKY/WX    TMP DP  RH WIND       PRES   REMARKS
BIRMINGHAM     CLOUDY    48  46  93 SE16G33   30.05F                  
MONTGOMERY     CLOUDY    50  47  89 E13G20    30.12R                  
SHELBY CO ARPT CLOUDY    46  45  96 E9        30.07F FOG              
MAXWELL AFB    CLOUDY   N/A N/A N/A E16       30.12R                  
GREENVILLE     CLOUDY    53  47  79 E14G20    30.07S                  
SELMA            N/A     52  48  87 E15G21    30.05F                  
PRATTVILLE     CLOUDY    48  47  97 E8        30.11S                  
BESSEMER       CLOUDY    46  46 100 SE13G24   30.04F FOG              
TALLADEGA      CLOUDY    46  44  93 E9        30.12F                  
PELL CITY      CLOUDY    46  46 100 VRB5      30.12F                  
MARION         CLOUDY    51  49  92 SE10G20   30.03S                  
SYLACAUGA      CLOUDY    45  45 100 SE12G21   30.10F                  
$$
 
ALZ019-021-028-029-037-038-045>048-201000-
EAST CENTRAL ALABAMA
  
CITY           SKY/WX    TMP DP  RH WIND       PRES   REMARKS
ANNISTON       CLOUDY    43  41  93 E12G21    30.14F                  
ALEXANDER CITY CLOUDY    45  44  97 E5        30.15R FOG              
AUBURN           N/A    N/A N/A N/A MISG        N/A                   
$$
 
ALZ051>064-201000-
SOUTHWEST ALABAMA
  
CITY           SKY/WX    TMP DP  RH WIND       PRES   REMARKS
MOBILE         CLOUDY    69  69 100 SE13      29.98S FOG              
BROOKLEY FIELD CLOUDY    65  65 100 SE7       29.99S FOG              
EVERGREEN      CLOUDY    58  51  78 E12       30.06R                  
$$

ALZ049-050-065>069-201000-
SOUTHEAST ALABAMA
  
CITY           SKY/WX    TMP DP  RH WIND       PRES   REMARKS
DOTHAN         CLOUDY    50  48  93 E14       30.14F FOG              
OZARK          CLOUDY    52  50  93 E10       30.10F                  
TROY           CLOUDY    48  47  96 E7        30.12F FOG              
EUFAULA        CLOUDY    48  31  51 E8        30.15F                  
$$